sat.trackr.live / text

‹ back to catalog

STARLINK-3095

NORAD 49160 · 2021-082AG

PAYLOAD ACTIVE UNKNOWN

§ Identity

Operator
Country
US
Launch date
2021-09-14
Launch site
AFWTR
Launch vehicle
Mass (kg)
RCS (m²)

Purposes: comms

External: N2YO · Heavens-Above · Gunter

§ Orbital elements

Epoch: 2026-05-25T02:47:51.692928Z

Period
96.11 min
Inclination
69.9994°
Eccentricity
0.0003426
Mean motion
14.98336377 rev/d
Perigee alt
569.7 km
Apogee alt
574.4 km
Semi-major
6,950.2 km
B*
-3.2593e-5
RAAN
101.7396°
Arg perigee
260.7228°
Mean anomaly
99.3544°
Rev number
25,849

§ Raw data

STARLINK-30951 49160U 21082AG  26145.11657052 -.00000482  00000+0 -32593-4 0  99992 49160  69.9994 101.7396 0003426 260.7228  99.3544 14.98336377258490

JSON: /api/v1/satellites/49160 · /tle

For live sub-satellite position, see the globe view (requires WebGL).

§ Visibility from observer

Set your observer location to see the next 7 days of passes ≥ 10°. The values pass through the URL so the page stays shareable.

No JS? Fill the form by hand. The geolocation button needs JavaScript.